Regional Weather Roundup
Issued by NWS

Home | Current Version | Previous Version | Graphics & Text | Print | Product List | Glossary On
Versions: 1 2 3 4 5 6 7 8 9 10 11 12 13 14 15 16 17 18 19 20 21 22 23 24 25 26 27 28 29 30 31 32 33 34 35 36 37 38 39 40 41 42 43 44 45 46 47 48 49 50
544
ASUS43 KBIS 222102
RWRND

NORTH DAKOTA REGIONAL WEATHER ROUNDUP
NATIONAL WEATHER SERVICE BISMARCK ND
300 PM CST MON JAN 22 2018

NOTE: "FAIR" INDICATES FEW OR NO CLOUDS BELOW 12,000 FEET WITH NO
SIGNIFICANT WEATHER AND/OR OBSTRUCTIONS TO VISIBILITY.


NDZ001>003-009>011-017-222200-
NORTHWEST NORTH DAKOTA

CITY           SKY/WX    TMP DP  RH WIND       PRES   REMARKS
WILLISTON      SUNNY     27  18  69 SW6       29.96F
MINOT          CLOUDY    22  19  89 S8        30.00S FOG     WCI  12
MINOT AFB      CLOUDY    20  17  91 S8        29.98F WCI  10
$$

NDZ018>021-031>035-040>046-222200-
SOUTHWEST NORTH DAKOTA

CITY           SKY/WX    TMP DP  RH WIND       PRES   REMARKS
BISMARCK       CLOUDY    24  22  91 NW7       30.00F FOG     WCI  16
DICKINSON      SUNNY     33  21  61 W8        29.93S
GARRISON         N/A     18  15  88 S3        29.99F
HETTINGER ARPT SUNNY     38  20  48 NW6       29.95S
$$

NDZ004>008-012>016-024-026-027-054-222200-
NORTHEAST NORTH DAKOTA

CITY           SKY/WX    TMP DP  RH WIND       PRES   REMARKS
GRAND FORKS    CLOUDY    26  22  84 N16       30.03S WCI  14
GRND FRKS AFB  CLOUDY    26  21  82 NE14      30.02S WCI  14
DEVILS LAKE    CLOUDY    21  20  96 NE8       30.03S WCI  11
$$

NDZ022-023-025-028>030-036>039-047>053-222200-
SOUTHEAST NORTH DAKOTA

CITY           SKY/WX    TMP DP  RH WIND       PRES   REMARKS
FARGO          CLOUDY    27  23  85 N15G25    29.97R WCI  15
JAMESTOWN      CLOUDY    22  20  92 N16       29.98S WCI   8
$$





USA.gov is the U.S. government's official web portal to all federal, state and local government web resources and services.